User: anonymous   Login
Location: Unspecified
(0.0000°N, 0.0000°E)
Time: 11:35:06
(UTC+00:00)
Language:

Kosmos-2266 - Orbit

View from above orbital plane
View from above orbital plane
View from above satellite
View from above satellite

Ground track
Ground track

The orbit data is extracted from the following two-line orbital elements,

1 22888U 93070A   17264.70931008  .00000020  00000-0  49110-5 0  9997
2 22888  82.9474 281.9645 0049621  89.5022  27.7043 13.74907201195818
Epoch (UTC): 21 September 2017 17:01:24
Eccentricity: 0.0049621
inclination: 82.9474°
perigee height: 945 km
apogee height: 1018 km
right ascension of ascending node: 281.9645°
argument of perigee: 89.5022°
revolutions per day: 13.74907201
mean anomaly at epoch: 27.7043°
orbit number at epoch: 19581

The dashed part of the orbit path shows where the satellite is in the earth's shadow,  

DLR